Rolla, ND

9:22 AM CST on January 20, 2018 (GMT -0600)
Rolla

Weather History for K06D - July, 2013

Change the Weather History Date:

Tuesday, July 16, 2013

  Actual Average (KRUG) Record (KRUG)
Temperature  
Mean Temperature 66 °F -  
Max Temperature 71 °F 84 °F 98 °F (1949)
Min Temperature 60 °F 57 °F 45 °F (1958)
Growing Degree Days 16 (Base 50)    
Moisture  
Dew Point 63 °F    
Average Humidity 88    
Maximum Humidity 100    
Minimum Humidity 69    
Precipitation  
Precipitation 0.50 in - - ()
Sea Level Pressure  
Sea Level Pressure 30.11 in    
Wind  
Wind Speed 13 mph (NW)    
Max Wind Speed 30 mph    
Max Gust Speed 39 mph    
Visibility 10 miles    
Events Rain , Thunderstorm    
Averages and records for this station are not official NWS values.
T = Trace of Precipitation, MM = Missing Value Source: NWS Daily Summary

Daily Weather History Graph

Daily Weather History Graph

Search for Another Location

Airport or City:

Trip Planner

Search our weather history database for the weather conditions in past years. The results will help you decide how hot, cold, wet, or windy it might be!

Date:

Astronomy

Jul. 16, 2013 Rise Set
Actual Time 5:52 AM CDT 9:36 PM CDT
Civil Twilight 5:12 AM CDT 10:16 PM CDT
Nautical Twilight 4:17 AM CDT 11:10 PM CDT
Astronomical Twilight 2:56 AM CDT 12:29 AM CDT
Moon 3:07 PM CDT (7/16) 12:39 AM CDT (7/16)
Length of Visible Light 17h 04m
Length of Day
15h 43m
First Quarter, 56% of the Moon is Illuminated
Jul 16
First Quarter
Jul 22
Full
Jul 29
Last Quarter
Aug 6
New
Aug 14
First Quarter

Hourly Weather History & Observations

Time (CDT) Temp. Dew Point Humidity Pressure Visibility Wind Dir Wind Speed Gust Speed Precip Events Conditions
12:15 AM 71.6 °F 71.6 °F 100% 29.98 in 10.0 mi South 12.7 mph - N/A   Mostly Cloudy
12:35 AM 71.6 °F 71.6 °F 100% 29.98 in 10.0 mi South 12.7 mph 18.4 mph N/A   Overcast
12:55 AM 71.6 °F 71.6 °F 100% 30.02 in 10.0 mi WSW 29.9 mph 39.1 mph N/A   Mostly Cloudy
1:15 AM 64.4 °F 64.4 °F 100% 30.03 in 1.8 mi West 21.9 mph 33.4 mph 0.24 in Rain , Thunderstorm Heavy Rain
1:35 AM 66.2 °F 66.2 °F 100% 30.03 in 5.0 mi West 21.9 mph 28.8 mph 0.33 in Rain Rain
1:55 AM 66.2 °F 64.4 °F 94% 30.04 in 3.0 mi West 11.5 mph 20.7 mph 0.44 in Rain , Thunderstorm Heavy Rain
2:15 AM 64.4 °F 64.4 °F 100% 30.00 in 9.0 mi South 8.1 mph - 0.02 in Rain Light Rain
2:35 AM 64.4 °F 64.4 °F 100% 29.91 in 10.0 mi ESE 16.1 mph - 0.03 in   Mostly Cloudy
2:55 AM 64.4 °F 64.4 °F 100% 29.98 in 10.0 mi NW 13.8 mph 24.2 mph 0.03 in   Partly Cloudy
3:15 AM 64.4 °F 62.6 °F 94% 29.98 in 10.0 mi SW 5.8 mph - N/A   Clear
3:35 AM 60.8 °F 60.8 °F 100% 29.98 in 10.0 mi WSW 6.9 mph - N/A   Clear
3:55 AM 60.8 °F 60.8 °F 100% 29.98 in 10.0 mi SW 6.9 mph - N/A   Clear
4:15 AM 60.8 °F 60.8 °F 100% 29.98 in 10.0 mi SSW 6.9 mph - N/A   Clear
4:35 AM 62.6 °F 62.6 °F 100% 30.00 in 10.0 mi SSW 9.2 mph - N/A   Partly Cloudy
4:55 AM 64.4 °F 62.6 °F 94% 30.06 in 10.0 mi WSW 18.4 mph 27.6 mph N/A Thunderstorm Mostly Cloudy
5:15 AM 64.4 °F 64.4 °F 100% 30.05 in 10.0 mi WSW 15.0 mph - 0.01 in Rain Light Rain
5:35 AM 64.4 °F 64.4 °F 100% 30.01 in 10.0 mi WNW 13.8 mph 18.4 mph 0.01 in Rain Light Rain
5:55 AM 64.4 °F 62.6 °F 94% 29.98 in 10.0 mi South 8.1 mph - 0.03 in Rain Light Rain
6:15 AM 64.4 °F 64.4 °F 100% 29.97 in 10.0 mi SSW 12.7 mph 19.6 mph N/A   Scattered Clouds
6:35 AM 62.6 °F 62.6 °F 100% 29.99 in 10.0 mi WSW 6.9 mph 18.4 mph N/A   Clear
6:55 AM 62.6 °F 62.6 °F 100% 29.99 in 10.0 mi WSW 4.6 mph - N/A   Clear
7:15 AM 62.6 °F 62.6 °F 100% 30.01 in 10.0 mi SSW 8.1 mph - N/A   Clear
7:35 AM 64.4 °F 64.4 °F 100% 30.02 in 10.0 mi SW 10.4 mph - N/A   Clear
7:55 AM 64.4 °F 64.4 °F 100% 30.03 in 10.0 mi SSW 12.7 mph 17.3 mph N/A   Clear
8:15 AM 64.4 °F 64.4 °F 100% 30.03 in 10.0 mi SW 10.4 mph - N/A   Clear
8:35 AM 66.2 °F 64.4 °F 94% 30.04 in 10.0 mi WSW 12.7 mph - N/A   Clear
8:55 AM 68.0 °F 64.4 °F 88% 30.07 in 10.0 mi West 17.3 mph - N/A   Clear
9:15 AM 68.0 °F 64.4 °F 88% 30.12 in 10.0 mi WNW 19.6 mph - N/A Thunderstorm Mostly Cloudy
9:35 AM 68.0 °F 64.4 °F 88% 30.12 in 10.0 mi NW 21.9 mph 28.8 mph N/A Thunderstorm Overcast
9:55 AM 66.2 °F 60.8 °F 83% 30.07 in 10.0 mi NNE 8.1 mph - N/A   Mostly Cloudy
10:15 AM 66.2 °F 62.6 °F 88% 30.04 in 10.0 mi NNE 10.4 mph - N/A   Partly Cloudy
10:55 AM 68.0 °F 60.8 °F 78% 30.09 in 10.0 mi North 18.4 mph - N/A   Partly Cloudy
11:15 AM 68.0 °F 60.8 °F 78% 30.10 in 10.0 mi NNW 18.4 mph - N/A   Clear
11:35 AM 68.0 °F 62.6 °F 83% 30.11 in 10.0 mi North 15.0 mph - N/A   Clear
11:55 AM 68.0 °F 62.6 °F 83% 30.12 in 10.0 mi North 16.1 mph 20.7 mph N/A   Clear
12:15 PM 68.0 °F 62.6 °F 83% 30.13 in 10.0 mi North 12.7 mph - N/A   Scattered Clouds
12:35 PM 68.0 °F 62.6 °F 83% 30.14 in 10.0 mi North 12.7 mph - N/A   Mostly Cloudy
12:55 PM 69.8 °F 64.4 °F 83% 30.15 in 10.0 mi NNW 16.1 mph - N/A   Mostly Cloudy
1:15 PM 69.8 °F 60.8 °F 73% 30.17 in 10.0 mi NNW 15.0 mph 18.4 mph N/A   Overcast
1:35 PM 71.6 °F 64.4 °F 78% 30.17 in 10.0 mi NNW 12.7 mph - N/A   Mostly Cloudy
1:55 PM 69.8 °F 62.6 °F 78% 30.18 in 10.0 mi NNW 15.0 mph 19.6 mph N/A Thunderstorm Mostly Cloudy
2:15 PM 69.8 °F 62.6 °F 78% 30.16 in 10.0 mi North 13.8 mph - N/A   Mostly Cloudy
2:35 PM 66.2 °F 59.0 °F 78% 30.16 in 6.0 mi North 13.8 mph - N/A Thunderstorm Unknown
3:55 PM 69.8 °F 62.6 °F 78% 30.21 in 10.0 mi NNW 6.9 mph - N/A   Clear
4:15 PM 69.8 °F 62.6 °F 78% 30.20 in 10.0 mi NNW 10.4 mph - N/A   Scattered Clouds
4:35 PM 71.6 °F 60.8 °F 69% 30.18 in 10.0 mi NNE 11.5 mph - N/A   Scattered Clouds
4:55 PM 71.6 °F 62.6 °F 73% 30.17 in 10.0 mi North 11.5 mph - N/A   Clear
5:15 PM 69.8 °F 60.8 °F 73% 30.18 in 10.0 mi North 13.8 mph 18.4 mph N/A   Clear
5:35 PM 68.0 °F 60.8 °F 78% 30.19 in 10.0 mi North 11.5 mph - N/A   Clear
5:55 PM 69.8 °F 60.8 °F 73% 30.21 in 10.0 mi NNW 11.5 mph 16.1 mph N/A   Clear
6:15 PM 71.6 °F 62.6 °F 73% 30.21 in 10.0 mi NNW 11.5 mph - N/A   Clear
6:35 PM 71.6 °F 60.8 °F 69% 30.20 in 10.0 mi North 8.1 mph - N/A   Clear
6:55 PM 71.6 °F 60.8 °F 69% 30.20 in 10.0 mi North 8.1 mph - N/A   Clear
7:15 PM 69.8 °F 62.6 °F 78% 30.20 in 10.0 mi North 9.2 mph - N/A   Clear
7:35 PM 69.8 °F 62.6 °F 78% 30.19 in 10.0 mi NNW 10.4 mph - N/A   Clear
7:55 PM 69.8 °F 60.8 °F 73% 30.19 in 10.0 mi NNW 10.4 mph - N/A   Clear
8:15 PM 68.0 °F 62.6 °F 83% 30.19 in 10.0 mi NNW 10.4 mph - N/A   Clear
8:35 PM 68.0 °F 62.6 °F 83% 30.19 in 10.0 mi NNW 11.5 mph - N/A   Clear
8:55 PM 68.0 °F 62.6 °F 83% 30.20 in 10.0 mi NNW 9.2 mph - N/A   Clear
9:15 PM 66.2 °F 62.6 °F 88% 30.20 in 10.0 mi NNW 8.1 mph - N/A   Clear
9:35 PM 64.4 °F 62.6 °F 94% 30.21 in 10.0 mi NNW 5.8 mph - N/A   Clear
9:55 PM 64.4 °F 62.6 °F 94% 30.22 in 10.0 mi NW 4.6 mph - N/A   Clear
10:15 PM 62.6 °F 62.6 °F 100% 30.23 in 10.0 mi NW 6.9 mph - N/A   Clear
10:35 PM 62.6 °F 60.8 °F 94% 30.24 in 10.0 mi NNW 9.2 mph - N/A   Clear
10:55 PM 62.6 °F 59.0 °F 88% 30.24 in 10.0 mi NNW 10.4 mph - N/A   Clear
11:15 PM 62.6 °F 60.8 °F 94% 30.24 in 10.0 mi North 11.5 mph - N/A   Clear
11:35 PM 62.6 °F 60.8 °F 94% 30.25 in 10.0 mi North 8.1 mph - N/A   Clear
11:55 PM 60.8 °F 60.8 °F 100% 30.25 in 10.0 mi North 6.9 mph - N/A   Clear